Miscellaneous Local Product
Issued by NWS North Platte, NE

Home | Current Version | Previous Version | Text Only | Print | Product List | Glossary On
Versions: 1 2 3 4 5 6 7 8 9 10 11 12 13 14 15 16 17 18 19 20 21 22 23 24 25 26 27 28 29 30 31 32 33 34 35 36 37 38 39 40 41 42 43 44 45 46 47 48 49 50
000
AXUS43 KLBF 211110
MISLBF


WESTERN AND NORTH CENTRAL NEBRASKA HOURLY WEATHER ROUNDUP
NATIONAL WEATHER SERVICE NORTH PLATTE NE
500 AM CST TUE FEB 21 2017

NOTE: "FAIR" INDICATES FEW OR NO CLOUDS BELOW 12,000 FEET WITH NO
SIGNIFICANT WEATHER AND/OR OBSTRUCTIONS TO VISIBILITY.

NOTE: STATIONS NOT REPORTING VARIABLES SUCH AS SKY/WEATHER OR
PRESSURE ARE PROVIDED BY RAWS AND APRS NETWORKS AND ARE NOT UNDER
NATIONAL WEATHER SERVICE QUALITY CONTROL.

...OBSERVATIONS IN AND NEAR THE EASTERN PANHANDLE OF NEBRASKA...

CITY           SKY/WX    TMP DP  RH WIND       PRES   REMARKS
PINE RIDGE     CLEAR     32  27  81 W3        29.87S
CHADRON        CLEAR     45  26  47 VRB3      29.86S
ALLIANCE       CLEAR     32  22  66 W6        29.91R WCI  26
SIDNEY         CLEAR     33  17  51 W12       29.96S WCI  24
CRESCENT LAKE    N/A     38  19  46 CALM        N/A
$$

...OBSERVATIONS IN NORTHERN NEBRASKA AND FAR SOUTHERN SOUTH DAKOTA...

CITY           SKY/WX    TMP DP  RH WIND       PRES   REMARKS
WINNER         FAIR      46  28  49 SW14      29.80S
VALENTINE      CLOUDY    43  21  41 SW13      29.86R
THEDFORD       PTCLDY    39  20  46 CALM      29.91F
AINSWORTH      CLEAR     42  24  49 SW9       29.86F
O`NEILL        CLEAR     40  32  74 SW10      29.90S WCI  33
ORD            CLEAR     32  27  81 S5        29.93S WCI  27
BROKEN BOW     CLEAR     37  27  67 SW8       29.93F WCI  31
VALENTINE NWR    N/A     43  19  38 SW14        N/A
BUTTE            N/A     40  30  66 SW5         N/A
HALSEY           N/A     40  18  40 SW6G13      N/A
CHAMBERS         N/A     42  29  61 W7          N/A
EWING            N/A     40  33  76 S3          N/A
$$

...OBSERVATIONS IN SOUTHWEST NEBRASKA AND FAR NORTHEAST COLORADO...

CITY           SKY/WX    TMP DP  RH WIND       PRES   REMARKS
HOLYOKE        FAIR      37  18  44 W3        29.97R
IMPERIAL       CLOUDY    37  18  46 SW6       29.96S WCI  32
OGALLALA       CLOUDY    30  20  65 SW5       29.95S WCI  25
NORTH PLATTE   CLOUDY    27  21  78 W3        29.96S
MCCOOK         CLOUDY    30  22  72 W8        29.98S WCI  22
LEXINGTON      CLOUDY    35  24  64 W5        29.97R WCI  31
STAPLETON        N/A     36  22  56 CALM        N/A
GOTHENBURG       N/A     40  20  45 W3          N/A
CALLAWAY         N/A     39  25  58 S5          N/A
$$

...OBSERVATIONS IN CENTRAL LINCOLN COUNTY AREA...

CITY           SKY/WX    TMP DP  RH WIND       PRES   REMARKS
N.P. AIRPORT   CLOUDY    27  21  78 W3        29.96S
N.P. DOWNTOWN    N/A     31  24  74 CALM        N/A
N.P. SOUTHEAST   N/A     35  21  57 CALM        N/A
N.P. HILLCREST   N/A     39  22  50 CALM        N/A
$$

...SOME OBSERVATIONS FROM AROUND THE REGION...

CITY           SKY/WX    TMP DP  RH WIND       PRES   REMARKS
LARAMIE        CLEAR     37  25  61 SW10      30.05R WCI  30
CHEYENNE       CLEAR     48  26  42 W32G44    30.00R
DENVER         CLOUDY    48  16  27 NW14      30.03R
AKRON          CLOUDY    43  12  28 W17       29.98R
SCOTTSBLUFF    CLEAR     29  22  75 N5        29.94S WCI  24
RAPID CITY     PTCLDY    50  30  46 S9        29.78S
BISMARCK       CLOUDY    35  29  78 CALM      29.66F
PIERRE         PTCLDY    42  30  62 W9        29.73F
SIOUX FALLS    CLEAR     35  34  96 SW3       29.89S
OMAHA          FOG       34  31  88 SE6       29.96S VSB 1   WCI  29
GRAND ISLAND   CLEAR     36  32  85 SW8       29.98R WCI  30
KANSAS CITY    CLOUDY    49  45  86 N9        29.95S
WICHITA        CLEAR     40  37  89 NW8       30.00R WCI  34
OKLAHOMA CITY  CLEAR     48  43  82 NW12      29.97R
DALLAS         PTCLDY    54  50  86 NW9       29.90R
AMARILLO       CLOUDY    39  19  44 W5        30.10S
DODGE CITY     CLOUDY    36  22  56 SW5       30.05S WCI  32
HAYS           CLOUDY    27  24  89 NW7       30.04R WCI  19
GOODLAND       CLOUDY    43  14  31 SW17      29.99S
$$




USA.gov is the U.S. government's official web portal to all federal, state and local government web resources and services.